Date,TemperatureHighF,TemperatureAvgF,TemperatureLowF,DewpointHighF,DewpointAvgF,DewpointLowF,HumidityHigh,HumidityAvg,HumidityLow,PressureMaxIn,PressureMinIn,WindSpeedMaxMPH,WindSpeedAvgMPH,GustSpeedMaxMPH,PrecipitationSumIn
2013-1-1,33,27,14,26,17,7,76,68,54,30.02,29.83,23,2,29,0.01
2013-1-2,26,18,7,17,11,4,89,75,60,30.20,30.00,12,1,19,0.00
2013-1-3,31,15,0,18,8,-3,89,75,54,30.22,30.04,8,0,8,0.00
2013-1-4,39,30,22,23,20,17,85,66,46,30.05,29.90,13,1,16,0.07
2013-1-5,35,28,18,24,21,15,91,73,61,30.29,29.96,19,2,19,0.00
2013-1-6,43,27,16,30,23,14,95,86,56,30.24,29.97,12,0,13,0.04
2013-1-7,39,29,16,30,22,14,92,74,45,30.40,30.05,13,1,15,0.02
2013-1-8,44,24,13,28,19,11,95,83,41,30.45,30.32,8,0,8,0.02
2013-1-9,45,30,14,34,23,12,95,78,52,30.44,30.10,24,1,27,0.00
2013-1-10,42,34,23,27,23,20,92,65,48,30.59,30.22,27,4,29,0.00
2013-1-11,36,29,20,34,26,18,100,89,65,30.58,30.17,8,0,11,0.01
2013-1-12,50,36,32,43,35,31,98,95,74,30.19,30.13,4,0,4,0.00
2013-1-18,16,12,9,11,7,6,85,82,77,30.45,30.35,4,0,5,0.00
2013-1-19,48,36,16,27,19,10,80,51,38,30.35,29.83,20,3,24,0.00
2013-1-20,46,36,21,31,20,7,71,52,27,30.02,29.62,30,4,30,0.00
2013-1-21,23,20,15,17,10,5,91,68,52,30.07,29.82,15,1,17,0.00
2013-1-22,19,12,5,12,-2,-8,81,54,37,30.17,29.81,21,3,21,0.00
2013-1-23,14,6,-1,-1,-4,-7,85,63,40,30.22,30.14,14,1,18,0.00
2013-1-24,16,6,-4,1,-3,-7,87,68,44,30.40,30.17,24,3,25,0.00
2013-1-25,22,13,7,9,2,-3,88,64,35,30.42,30.09,18,1,20,0.00
2013-1-26,23,14,9,9,5,2,89,66,46,30.37,30.06,15,2,17,0.00
2013-1-27,33,19,13,10,6,-1,80,59,28,30.53,30.36,18,2,19,0.00
2013-1-28,28,22,12,26,17,7,95,84,63,30.52,29.99,4,0,5,0.00
2013-1-29,47,35,28,38,32,26,100,92,68,30.16,29.99,6,0,6,0.01
2013-1-30,61,45,34,55,44,34,100,94,78,30.07,29.34,17,1,21,0.06
2013-1-31,50,36,23,50,26,9,99,71,43,29.69,28.96,30,3,30,0.77
2013-2-1,27,21,16,14,9,5,80,60,45,30.19,29.68,20,3,20,0.77
2013-2-2,27,19,15,14,8,3,84,63,41,30.25,30.06,11,1,14,0.00
2013-2-3,27,18,12,16,14,10,93,82,61,30.06,29.80,8,0,8,0.00
2013-2-4,24,19,15,16,10,6,91,68,49,29.97,29.81,17,2,20,0.00
2013-2-5,27,22,16,20,16,12,89,79,67,30.01,29.91,9,0,9,0.01
2013-2-6,34,25,18,22,14,-4,93,66,35,30.38,29.91,18,2,18,0.00
2013-2-7,32,20,10,12,9,6,89,63,44,30.53,30.36,10,1,10,0.00
2013-2-8,30,25,22,26,21,11,94,85,59,30.38,29.81,11,1,11,0.00
2013-2-9,25,20,9,20,10,1,90,66,41,30.37,29.84,21,5,23,0.00
2013-2-10,39,16,1,14,6,-2,88,68,23,30.53,30.32,7,0,9,0.04
2013-2-11,48,29,20,41,24,14,100,83,74,30.32,29.72,11,1,12,0.20
2013-2-13,45,38,32,24,22,19,62,52,41,29.89,29.73,8,1,9,0.00
2013-2-14,45,26,20,26,22,18,94,86,45,29.99,29.80,8,0,9,0.00
2013-2-15,51,39,25,30,27,22,92,65,39,29.99,29.91,15,1,16,0.00
2013-2-16,33,26,22,26,17,8,92,67,53,29.99,29.82,16,2,16,0.01
2013-2-17,24,17,11,14,3,0,70,53,39,29.96,29.71,25,6,29,0.01
2013-2-18,32,18,10,13,6,1,80,60,33,30.24,29.96,22,3,22,0.00
2013-2-19,36,22,14,30,16,11,97,79,54,30.20,29.66,11,0,16,0.00
2013-2-20,32,23,19,28,13,8,87,67,50,29.95,29.69,32,4,32,0.00
2013-2-21,24,20,17,13,11,9,77,68,57,30.40,29.92,23,5,25,0.00
2013-2-22,33,19,12,21,14,10,92,83,59,30.45,30.33,11,1,13,0.01
2013-2-23,33,30,29,32,28,26,95,92,86,30.22,30.06,8,0,9,0.01
2013-2-24,39,32,28,34,26,21,98,78,69,30.00,29.79,14,2,16,0.06
2013-2-25,38,30,24,27,24,22,93,78,61,30.27,30.00,9,1,11,0.00
2013-2-26,38,22,19,28,21,17,96,94,61,30.34,30.03,8,0,10,0.00
2013-2-27,38,33,28,37,31,26,97,93,90,30.03,29.56,11,1,13,1.49
2013-2-28,41,36,31,37,33,28,98,87,74,29.64,29.56,7,0,8,0.11
2013-3-1,38,34,29,30,26,22,91,74,63,29.81,29.63,15,2,15,0.01
2013-3-2,33,28,23,23,21,16,79,75,64,29.81,29.74,14,3,14,0.00
2013-3-3,32,23,20,20,15,13,80,71,60,29.82,29.72,14,3,15,0.00
2013-3-4,33,25,22,22,18,14,82,74,57,29.96,29.80,19,4,22,0.00
2013-3-5,44,30,26,28,22,20,80,73,49,30.07,29.96,13,2,13,0.00
2013-3-6,38,36,32,30,26,23,75,69,64,30.10,30.00,26,4,26,0.00
2013-3-7,34,31,29,28,26,22,93,80,65,30.15,30.08,10,1,13,0.00
2013-3-8,32,29,28,30,25,23,92,85,75,30.29,30.08,14,2,14,0.00
2013-3-9,56,35,20,27,21,16,98,64,23,30.38,30.27,11,1,11,0.01
2013-3-10,56,36,20,32,26,19,95,70,36,30.40,30.26,12,1,16,0.01
2013-3-11,49,44,30,42,35,28,94,71,50,30.22,30.06,14,1,16,0.00
2013-3-12,50,46,35,48,43,31,97,92,83,30.06,29.68,18,2,18,2.32
2013-3-13,46,36,28,32,26,21,94,71,42,29.88,29.80,15,1,15,0.00
2013-3-14,30,25,18,26,12,7,88,59,43,29.94,29.84,21,5,25,0.00
2013-3-15,36,29,22,29,18,9,85,64,46,29.97,29.71,26,3,26,0.00
2013-3-16,35,29,23,26,19,10,85,67,37,29.94,29.78,16,1,19,0.00
2013-3-17,33,25,18,18,11,6,77,57,35,30.36,29.94,18,2,22,0.00
2013-3-18,32,22,12,22,13,4,92,71,34,30.46,30.10,11,1,13,0.00
2013-3-19,38,30,24,35,28,20,96,91,72,30.10,29.71,15,1,17,0.14
2013-3-20,40,28,24,23,19,14,85,69,38,29.86,29.78,16,2,18,0.12
2013-3-21,38,24,12,19,13,8,92,65,31,29.85,29.66,11,1,13,0.12
2013-3-22,36,27,20,23,18,11,87,70,54,29.87,29.72,18,2,26,0.03
2013-3-23,42,32,28,23,21,16,83,64,42,29.90,29.81,23,4,23,0.03
2013-3-24,44,34,26,25,21,18,84,59,43,29.95,29.75,15,2,15,0.00
2013-3-25,42,35,27,26,24,22,89,66,46,29.77,29.52,15,1,15,0.00
2013-3-26,46,36,27,32,26,18,90,70,35,29.89,29.63,15,2,16,0.00
2013-3-27,49,34,22,29,24,20,94,69,33,29.93,29.88,14,2,16,0.00
2013-3-28,42,40,36,31,30,27,79,67,63,30.15,30.03,12,2,14,0.00
2013-3-29,46,41,36,30,28,26,75,61,51,30.17,30.11,12,2,12,0.00
2013-3-30,58,43,26,32,25,19,96,55,26,30.18,30.09,16,2,16,0.00
2013-3-31,53,37,22,38,29,20,96,77,37,30.17,29.74,16,1,22,0.28
2013-4-1,54,38,27,44,30,12,99,75,41,29.90,29.60,25,3,25,0.30
2013-4-2,38,29,23,18,13,8,67,51,33,30.08,29.89,21,4,22,0.00
2013-4-3,42,31,25,19,14,11,65,52,33,30.19,30.03,22,4,22,0.00
2013-4-4,57,38,22,24,19,14,82,50,22,30.39,30.03,12,1,12,0.00
2013-4-5,55,41,26,27,21,16,77,46,27,30.03,29.78,19,3,25,0.00
2013-4-6,55,37,27,21,12,2,69,40,13,30.32,30.01,15,2,20,0.00
2013-4-7,61,43,26,37,26,12,85,54,27,30.30,29.94,18,2,19,0.00
2013-4-8,68,49,31,41,36,29,96,65,35,30.11,29.99,10,1,13,0.00
2013-4-9,73,57,42,48,42,38,94,62,31,30.03,29.88,20,2,23,0.00
2013-4-10,58,51,45,52,48,41,98,91,70,30.04,29.83,9,0,14,0.43
2013-4-11,52,45,35,50,39,25,98,81,52,30.10,29.85,9,0,11,0.23
2013-4-12,37,36,34,36,34,32,97,93,84,30.09,29.79,18,2,21,0.71
2013-4-13,53,42,35,38,35,32,98,77,49,29.96,29.82,10,0,10,0.03
2013-4-14,48,38,28,34,28,24,92,69,43,30.27,29.94,14,2,15,0.00
2013-4-15,64,44,27,40,31,25,95,65,35,30.39,30.27,10,1,13,0.00
2013-4-16,60,49,38,54,44,32,94,84,74,30.37,30.09,21,1,21,0.14
2013-4-17,68,51,36,54,38,31,94,63,29,30.35,30.13,12,2,14,0.04
2013-4-18,58,46,32,51,37,30,95,75,47,30.36,30.09,17,2,18,0.00
2013-4-19,67,60,51,61,56,50,95,87,74,30.09,29.56,24,2,24,0.77
2013-4-20,56,45,33,50,32,18,96,64,33,30.34,29.66,16,2,17,0.92
2013-4-21,56,38,29,28,21,17,82,52,25,30.68,30.34,16,2,16,0.00
2013-4-22,54,40,26,32,25,20,92,60,29,30.72,30.52,18,2,20,0.00
2013-4-23,47,39,29,39,33,25,95,78,71,30.54,30.18,14,1,14,0.00
2013-4-24,76,52,28,53,41,27,98,71,35,30.18,29.77,14,1,17,0.00
2013-4-25,66,48,34,55,31,21,83,55,21,30.30,29.78,23,3,23,0.07
2013-4-26,64,45,28,35,29,23,94,60,23,30.48,30.30,14,1,14,0.00
2013-4-27,69,47,27,38,30,22,95,59,21,30.49,30.31,11,1,11,0.00
2013-4-28,71,53,32,41,36,30,95,57,28,30.35,30.16,16,1,16,0.00
2013-4-29,53,50,47,47,43,36,95,78,56,30.26,30.19,12,1,14,0.04
2013-4-30,70,54,42,48,44,37,97,73,35,30.34,30.23,11,1,13,0.02
2013-5-1,73,53,34,41,35,24,97,59,18,30.48,30.34,13,1,13,0.02
2013-5-2,80,56,35,46,38,33,97,59,21,30.48,30.30,15,1,15,0.00
2013-5-3,71,57,42,44,35,28,78,46,23,30.47,30.33,16,2,16,0.00
2013-5-4,65,44,34,45,38,32,97,81,47,30.38,30.27,8,0,9,0.00
2013-5-5,73,53,36,45,36,26,100,62,19,30.30,30.18,12,1,13,0.00
2013-5-6,77,53,32,47,41,31,98,68,28,30.27,30.12,12,1,13,0.00
2013-5-7,78,58,39,55,46,38,100,70,30,30.19,30.07,13,1,14,0.00
2013-5-8,60,58,53,59,56,51,97,92,86,30.15,29.97,14,1,14,1.11
2013-5-9,65,56,47,57,52,46,98,87,66,30.02,29.89,6,0,6,1.11
2013-5-10,77,58,42,58,51,41,100,80,45,30.02,29.88,8,0,8,0.00
2013-5-11,64,59,55,62,58,54,99,96,90,29.89,29.69,6,0,6,0.56
2013-5-12,62,52,36,55,42,24,100,73,30,29.90,29.66,14,1,18,0.56
2013-5-13,48,41,30,34,29,25,92,63,47,30.14,29.89,17,2,17,0.00
2013-5-14,57,41,28,34,28,20,98,65,27,30.17,30.05,12,1,13,0.00
2013-5-15,68,46,28,54,40,27,96,84,55,30.12,29.68,14,1,14,0.06
2013-5-16,80,61,40,51,40,33,99,56,21,29.88,29.73,20,2,20,0.00
2013-5-17,70,56,43,45,40,34,90,55,32,30.26,29.87,13,2,14,0.00
2013-5-18,68,52,36,50,43,35,99,73,44,30.33,30.25,10,0,11,0.00
2013-5-19,56,52,47,55,50,44,97,93,91,30.32,30.18,8,0,12,0.01
2013-5-20,85,65,52,67,59,51,100,83,49,30.18,29.95,8,0,8,0.01
2013-5-21,91,68,52,72,61,52,98,81,41,30.00,29.78,8,0,8,0.00
2013-5-22,79,69,61,70,65,60,96,88,70,29.88,29.79,9,0,10,0.03
2013-5-23,76,64,55,67,61,54,98,90,65,29.86,29.75,8,0,9,0.75
2013-5-24,61,57,47,60,56,44,99,96,87,29.87,29.68,9,0,12,0.32
2013-5-27,73,65,43,44,38,32,90,40,26,30.23,30.14,9,2,11,0.04
2013-5-28,65,52,38,48,40,36,96,70,42,30.26,30.21,6,0,7,0.00
2013-5-29,82,71,61,71,65,60,99,83,62,30.09,29.97,15,0,15,0.40
2013-5-30,91,70,58,72,64,57,100,82,41,30.14,30.05,11,0,12,0.07
2013-5-31,94,71,55,75,62,54,100,78,35,30.16,29.96,12,0,12,0.07
2013-6-1,92,72,55,73,63,54,100,78,35,30.02,29.87,13,0,13,0.00
2013-6-2,85,71,63,72,67,62,97,87,56,29.88,29.73,7,0,8,0.01
2013-6-3,73,64,49,63,56,45,98,80,52,29.95,29.81,8,0,9,0.00
2013-6-4,72,59,48,47,40,31,81,52,27,30.12,29.95,14,2,16,0.00
2013-6-5,75,56,38,53,45,36,98,70,38,30.25,30.11,9,0,9,0.00
2013-6-6,66,56,48,55,51,46,96,83,53,30.18,30.04,10,1,11,0.00
2013-6-7,57,55,53,56,54,51,98,96,92,30.04,29.74,8,0,11,0.01
2013-6-8,74,61,52,63,56,51,99,87,59,30.08,29.70,8,0,8,0.00
2013-6-9,78,62,46,61,54,45,99,77,44,30.22,30.08,11,0,11,0.00
2013-6-10,61,56,50,60,55,49,98,97,94,30.22,29.89,12,0,12,0.01
2013-6-11,71,62,57,67,60,54,99,91,77,29.89,29.60,18,1,18,0.00
2013-6-12,72,60,50,57,52,48,96,76,49,29.89,29.68,16,2,16,0.00
2013-6-13,55,52,46,54,51,45,99,97,95,29.88,29.62,15,1,15,0.01
2013-6-14,69,56,48,59,53,47,99,91,58,29.94,29.67,8,0,8,0.00
2013-6-15,76,59,46,59,49,44,100,75,37,30.03,29.93,11,1,12,0.00
2013-6-16,72,58,44,63,54,43,98,87,60,30.02,29.75,12,0,12,0.00
2013-6-17,86,64,52,66,58,52,100,84,34,29.95,29.82,23,0,26,0.00
2013-6-18,72,61,53,66,58,51,99,90,72,29.96,29.87,8,0,8,0.00
2013-6-19,76,58,45,53,47,42,99,73,35,30.22,29.96,7,0,8,0.01
2013-6-20,80,59,41,62,51,40,98,77,41,30.30,30.21,7,0,8,0.00
2013-6-21,81,64,48,68,59,47,99,85,52,30.30,30.21,7,0,7,0.00
2013-6-22,86,68,52,68,60,51,99,80,42,30.25,30.09,10,0,10,0.00
2013-6-23,93,72,59,76,65,58,99,80,38,30.16,30.01,15,0,15,0.00
2013-6-24,90,71,62,77,65,60,99,84,46,30.06,29.95,11,0,12,0.00
2013-6-25,90,70,56,74,64,55,99,84,46,30.03,29.78,10,0,10,0.00
2013-6-26,78,70,61,71,65,60,99,88,69,29.85,29.79,9,0,11,0.00
2013-6-27,82,69,56,72,64,56,100,87,64,29.86,29.52,7,0,9,0.00
2013-6-28,84,70,63,71,66,62,98,86,57,29.53,29.40,16,1,19,0.00
2013-6-29,83,68,60,69,62,59,99,83,50,29.71,29.49,15,0,18,0.01
2013-6-30,85,67,57,73,64,57,100,90,59,29.95,29.71,12,0,12,0.00
2013-7-1,75,67,62,70,66,62,99,96,84,30.04,29.93,7,0,7,0.00
2013-7-2,80,71,66,75,70,66,100,95,77,30.15,30.03,5,0,5,0.01
2013-7-3,86,71,66,74,69,65,100,93,63,30.22,30.14,6,0,8,0.00
2013-7-4,90,75,63,78,69,63,100,85,57,30.23,30.11,9,0,11,0.00
2013-7-5,94,77,66,77,70,66,99,83,47,30.18,30.05,9,0,9,0.00
2013-7-6,89,75,66,76,69,66,99,84,54,30.12,30.03,6,0,9,0.00
2013-7-7,93,75,64,79,70,63,99,86,55,30.08,29.91,7,0,7,0.00
2013-7-8,86,73,65,72,67,64,98,83,57,30.06,29.95,8,0,10,0.00
2013-7-9,83,71,65,75,68,64,98,92,67,30.09,29.99,6,0,8,0.00
2013-7-10,80,72,66,76,70,65,99,93,76,30.01,29.78,6,0,7,0.00
2013-7-11,81,70,59,69,63,57,99,82,48,29.98,29.77,8,0,8,0.01
2013-7-12,80,67,57,68,62,56,98,83,60,30.16,29.98,6,0,8,0.00
2013-7-13,72,66,62,70,65,60,98,95,89,30.32,30.16,5,0,5,0.00
2013-7-14,86,73,67,77,70,66,99,91,68,30.35,30.24,4,0,5,0.00
2013-7-15,91,74,63,75,68,63,100,83,46,30.27,30.17,6,0,8,0.00
2013-7-16,89,73,60,73,66,60,100,80,45,30.26,30.16,6,0,7,0.00
2013-7-17,94,75,62,75,67,61,99,81,42,30.25,30.06,6,0,7,0.00
2013-7-18,93,76,66,77,70,66,99,83,49,30.09,29.96,9,0,9,0.00
2013-7-19,95,77,64,79,70,64,99,81,47,29.99,29.76,11,0,11,0.00
2013-7-20,88,75,64,74,68,61,98,80,52,29.87,29.71,11,0,12,0.00
2013-7-21,84,69,57,70,63,56,98,82,47,29.99,29.87,5,0,5,0.00
2013-7-22,80,73,68,70,68,66,97,88,69,29.88,29.83,6,0,8,0.00
2013-7-23,84,71,63,75,69,62,99,92,65,29.83,29.57,6,0,6,0.00
2013-7-24,76,64,51,65,58,49,99,82,49,30.02,29.64,9,0,11,0.00
2013-7-25,73,60,47,60,53,46,98,81,56,30.12,30.02,7,0,8,0.00
2013-7-26,79,64,52,67,58,51,98,83,48,30.11,30.01,5,0,6,0.00
2013-7-27,84,67,54,67,60,53,98,80,49,30.08,29.95,12,0,12,0.00
2013-7-28,68,64,61,67,63,59,100,96,91,30.00,29.94,3,0,10,0.00
2013-7-29,84,67,54,69,61,53,99,84,40,30.14,29.98,5,0,7,0.02
2013-7-30,77,62,50,62,56,49,99,83,53,30.20,30.12,6,0,6,0.00
2013-7-31,69,56,50,63,55,49,99,95,82,30.21,30.06,1,-6,1,0.00
2013-8-1,66,63,62,64,62,61,98,96,92,29.94,29.88,6,0,11,0.14
2013-8-2,82,65,54,64,60,54,100,85,44,29.93,29.84,11,0,12,0.07
2013-8-3,81,67,52,66,57,50,97,72,41,29.93,29.84,9,0,10,0.00
2013-8-4,75,59,50,60,52,49,99,79,52,30.01,29.88,13,1,13,0.00
2013-8-5,77,59,46,53,49,44,97,74,39,30.10,30.00,8,0,9,0.00
2013-8-6,75,59,44,62,52,43,99,81,45,30.16,30.10,6,0,6,0.00
2013-8-7,67,61,53,63,59,52,98,95,87,30.17,30.06,7,0,8,0.05
2013-8-8,79,68,61,73,67,61,99,95,76,30.06,29.98,6,0,7,0.20
2013-8-9,76,70,65,75,69,64,100,98,90,29.99,29.80,7,0,7,2.07
2013-8-10,80,66,53,64,58,51,99,81,46,30.09,29.89,12,1,12,0.00
2013-8-11,78,60,46,63,54,45,99,83,48,30.17,30.04,7,0,12,0.00
2013-8-12,78,63,50,68,58,50,99,87,53,30.10,29.95,5,0,6,0.00
2013-8-13,80,64,58,69,62,56,100,94,61,29.96,29.69,12,0,15,0.39
2013-8-14,69,58,48,58,51,46,96,77,55,30.06,29.80,14,1,15,0.39
2013-8-15,73,56,45,58,50,44,99,82,48,30.19,30.06,7,0,7,0.00
2013-8-16,74,58,47,63,54,46,99,87,58,30.26,30.16,4,0,5,0.00
2013-8-17,80,60,46,65,55,45,99,84,47,30.34,30.26,6,0,6,0.00
2013-8-18,72,61,52,64,58,52,100,91,67,30.32,30.16,4,0,5,0.00
2013-8-19,56,54,53,55,53,52,98,98,97,30.16,30.13,1,0,1,0.00
2013-8-23,77,67,58,59,57,51,95,74,46,30.18,30.02,6,0,7,0.08
2013-8-24,82,61,46,59,53,45,99,80,39,30.40,30.18,5,0,8,0.00
2013-8-25,85,61,46,64,54,46,100,81,39,30.44,30.22,6,0,6,0.00
2013-8-26,74,64,56,69,63,55,99,94,78,30.24,29.91,4,0,4,0.70
2013-8-27,81,69,61,72,65,60,99,89,63,29.95,29.85,5,0,7,1.24
2013-8-28,84,67,59,72,64,58,99,90,60,29.96,29.86,8,0,10,1.24
2013-8-29,80,67,58,70,63,58,100,90,66,30.05,29.94,8,0,9,0.00
2013-9-13,57,54,51,51,49,47,86,83,79,29.89,29.80,8,1,11,0.75
2013-9-14,65,52,42,50,45,41,95,78,54,30.16,29.89,11,1,14,0.03
2013-9-15,71,51,36,57,46,35,99,85,50,30.25,30.11,7,0,7,0.00
2013-9-16,64,54,47,54,49,41,98,85,66,30.31,30.08,8,0,11,0.08
2013-9-17,66,47,36,46,40,34,98,79,41,30.49,30.31,8,0,8,0.00
2013-9-18,73,49,34,56,44,33,99,84,49,30.41,30.21,6,0,7,0.00
2013-9-19,78,53,38,59,48,37,99,85,46,30.24,30.09,7,0,8,0.00
2013-9-20,80,56,40,62,51,40,99,85,50,30.14,30.00,9,0,9,0.00
2013-9-21,72,57,47,60,54,46,98,89,62,30.02,29.66,12,0,15,0.32
2013-9-22,59,54,49,57,48,40,98,80,58,29.94,29.66,13,1,18,0.38
2013-9-23,64,49,37,45,39,35,95,70,47,30.10,29.93,17,2,18,0.38
2013-9-24,71,46,37,48,40,35,97,82,34,30.10,29.93,8,0,9,0.00
2013-9-25,75,50,35,55,44,34,98,83,39,30.02,29.91,7,0,7,0.00
2013-9-26,70,51,40,56,46,39,99,87,47,30.19,30.03,7,0,7,0.00
2013-9-27,69,51,37,55,46,36,99,87,59,30.32,30.18,10,0,10,0.00
2013-9-28,57,46,41,53,45,40,98,96,82,30.39,30.32,2,0,4,0.00
2013-9-29,75,59,45,56,51,44,97,77,49,30.22,30.11,9,0,9,0.00
2013-9-30,63,46,42,56,45,41,98,97,74,30.14,30.07,2,0,2,0.00
2013-10-1,78,62,45,61,54,44,99,80,48,30.07,29.94,7,0,8,0.00
2013-10-2,81,58,45,63,53,45,100,86,50,30.01,29.95,12,1,12,0.00
2013-10-11,47,46,44,45,44,43,95,94,92,30.19,30.19,0,0,1,0.00
2013-10-12,70,52,34,54,46,33,99,82,53,30.36,30.19,15,1,17,0.00
2013-10-13,67,54,44,52,48,42,99,82,55,30.42,30.34,10,1,12,0.00
2013-10-14,45,45,45,44,44,44,97,97,97,30.40,30.40,1,0,1,0.00
2013-10-16,58,55,53,54,52,52,95,92,85,29.96,29.91,8,0,10,0.00
2013-10-17,78,62,56,59,52,43,95,73,31,29.91,29.61,11,0,11,0.10
2013-10-18,66,54,39,59,45,37,96,74,35,29.98,29.61,19,2,20,0.42
2013-10-19,62,46,33,48,39,32,98,81,43,30.01,29.75,12,1,17,0.03
2013-10-20,59,47,36,46,37,32,96,70,41,30.08,29.74,18,3,22,0.03
2013-10-21,67,45,32,46,37,31,98,77,37,30.17,29.97,13,1,13,0.03
2013-10-22,61,48,34,49,41,32,93,77,51,29.97,29.74,12,1,12,0.02
2013-10-23,49,40,30,36,33,29,96,79,50,29.85,29.65,7,0,8,0.02
2013-10-24,50,38,28,34,29,25,95,71,47,29.97,29.77,15,2,16,0.01
2013-10-25,47,39,34,34,30,28,88,72,52,30.22,29.97,15,2,15,0.01
2013-10-26,52,47,43,31,28,26,61,48,38,30.08,29.88,18,2,19,0.00
2013-10-27,53,42,30,34,30,28,90,66,43,30.13,29.85,15,2,16,0.00
2013-10-28,52,35,26,36,29,25,96,82,49,30.38,30.12,11,0,11,0.00
2013-10-29,51,36,29,32,28,22,95,76,34,30.47,30.38,7,0,8,0.00
2013-10-30,59,39,31,44,35,28,96,87,56,30.39,30.22,5,0,5,0.01
2013-11-25,36,28,25,18,15,8,74,59,41,30.37,30.27,10,0,10,0.00
2013-11-26,33,30,27,31,26,12,96,88,49,30.32,29.92,8,0,9,0.74
2013-11-27,39,34,27,38,31,20,98,91,72,29.92,29.44,20,2,20,2.85
2013-11-28,28,22,16,21,14,10,89,73,55,30.49,29.70,22,2,29,2.85
2013-11-29,29,21,15,21,15,9,95,78,59,30.77,30.49,9,0,9,0.00
2013-11-30,28,19,8,20,13,6,92,76,54,30.81,30.41,9,0,9,0.00
2013-12-1,39,31,24,31,27,20,95,85,67,30.42,30.05,5,0,6,0.01
2013-12-2,38,31,26,33,30,25,100,93,83,30.05,29.92,2,0,2,0.01
2013-12-3,47,32,25,38,30,24,98,90,68,30.04,29.91,7,0,7,0.00
2013-12-4,47,31,23,37,29,22,98,91,65,30.20,30.04,4,0,5,0.01
2013-12-5,50,42,34,49,42,32,99,97,94,30.18,29.94,5,0,5,0.09
2013-12-6,46,38,30,46,35,28,99,89,67,30.20,29.88,16,1,19,0.20
2013-12-7,34,28,21,28,22,13,96,76,59,30.54,30.14,14,1,15,0.20
2013-12-8,28,23,18,20,17,14,87,75,62,30.62,30.45,8,0,11,0.00
2013-12-9,35,29,23,32,27,20,97,92,82,30.45,29.95,15,1,16,0.05
2013-12-10,34,28,20,29,23,12,92,80,64,30.06,29.85,13,1,15,0.06
2013-12-11,28,23,20,18,14,12,86,69,55,30.25,30.05,16,2,18,0.01
2013-12-12,22,14,6,15,6,3,88,71,52,30.35,30.09,13,1,15,0.00
2013-12-13,27,21,16,16,12,7,76,67,57,30.38,30.04,19,2,20,0.00
2013-12-14,18,15,12,16,10,8,93,82,66,30.54,30.01,8,0,11,0.00
2013-12-15,32,26,18,28,21,16,96,84,64,30.01,29.59,24,2,24,0.00
2013-12-16,27,18,2,17,8,0,99,67,52,30.24,29.76,23,2,23,0.00
2013-12-17,18,10,-4,16,8,-7,93,90,86,30.27,30.01,2,0,2,0.00
2013-12-18,31,21,8,22,16,6,94,83,63,30.13,29.99,13,0,15,0.00
2013-12-19,45,30,16,30,24,14,93,78,51,30.15,29.98,12,0,12,0.22
2013-12-20,49,38,27,41,33,26,95,83,59,30.13,29.93,16,2,18,0.35
2013-12-21,58,47,39,51,44,37,98,88,69,29.95,29.84,16,1,17,0.14
2013-12-22,59,55,49,56,53,47,97,91,86,29.86,29.72,19,2,21,0.05
2013-12-23,37,34,32,33,28,23,90,80,70,30.17,30.10,13,3,13,0.50
2013-12-24,32,26,14,23,18,5,87,70,58,30.36,30.13,15,2,16,0.50
2013-12-25,26,16,10,10,6,2,72,64,42,30.55,30.34,15,1,15,0.00
2013-12-26,30,25,18,25,18,10,89,75,62,30.44,30.15,11,1,13,0.01
2013-12-27,33,28,22,25,21,15,88,74,60,30.32,30.25,12,1,13,0.01
2013-12-28,47,29,19,32,24,18,96,85,51,30.26,30.06,16,1,16,0.00
2013-12-29,34,30,26,33,30,25,98,97,95,30.08,29.58,5,0,5,0.76
2013-12-30,36,25,11,34,19,5,98,76,65,30.22,29.70,22,3,24,0.25
2013-12-31,23,17,11,19,11,5,92,77,63,30.26,30.03,22,1,22,0.00
2014-1-1,25,19,12,16,11,7,90,71,53,30.41,30.25,14,1,15,0.00
2014-1-2,19,17,12,16,14,8,91,88,79,30.31,29.81,8,0,12,0.00